星链-5731 (STARLINK-5731 )

导读 | 星芒AI

STARLINK-5731 是 SpaceX Starlink 项目中的一颗低轨通信卫星,属于第二代 Starlink 卫星星座的一部分。该卫星于2023年发射,旨在为全球提供高速、低延迟的互联网服务。它运行在约550公里高的近地轨道,采用先进推进系统和激光通信技术,以提升网络性能和卫星间通信效率。STARLINK-5731 的部署有助于扩大 Starlink 在偏远和农村地区的覆盖范围,支持全球更多用户接入互联网服务。

基本信息
目录编号:
56924
目录名称:
STARLINK-5731
国际标识:
2023-083BA
轨道中心:
EARTH
卫星名称:
星链-5731
卫星全名:
星链-5731 (STARLINK-5731 )
卫星状态:
在轨 (已飞行923 天)
发射日期:
2023-06-12 UTC
国别 :
美国 (US)
星等 :
--
轨道信息
数据来源 国际轨道数据 AOE轨道数据
星历时间 2025-12-21T10:41:07+0800
12小时前
查看轨道信息
2025-12-20T06:00:00+0800
1天前
查看轨道信息
半长轴 6937.225km 6937.2km
偏心率 0.0001314 0.0001426
轨道倾角 43.002° 43.003°
近地点辐角 269.240° 254.294°
升交点赤经 135.451° 141.946°
平近点角 90.830° 113.272°
近地点 558.176km 558.073km
远地点 560km 560.053km
周期 95.838分钟 95.838分钟
每日圈数 15.025334 15.025416
详细信息
固有亮度:
5
最大亮度:
2.4
卫星平台:
Starlink v1.5
覆盖范围:
全球
运营商:
太空探索技术公司
运营商所在国:
美国
制造商(研发单位):
太空探索技术公司
制造商所在国:
美国
使用方式:
暂无
卫星简介
星链(Starlink)计划是由太空探索技术公司(SpaceX)提出的一个巨型低轨卫星互联网星座项目,计划在2019年至2024年间在太空搭建由约1.2万颗卫星组成的“星链”网络,其中1584颗将部署在地球上空550千米处的近地轨道,并从2020年开始工作。该卫星仍在工作。
2D轨道图
3D轨道图
轨道高度分析图
轨道倾角分析图
轨道综合分析图
查看轨道综合分析图